Coral Leaf — PHNI — position and weather

sailwx.info

Track history (hours):
 
Tides and Currents Weather Stations Pressure Air Temp Water Temp Dewpoint Dewpoint Depression Visibility Wind Speed Wind Dir Waves Ship Positions

Coral Leaf

Last reported at 2014-Oct-30 17:24 UTC. Time now 2014-Oct-31 07:02 UTC.
Position N 58°06' E 008°54'.

Length 108 m; draft 6.7 m.

MMSI: 244036000.

Date/timePositionNaut miles runAvg speedWind from/ knotsBaromVisibWave heightAir tempDewpointWater temp
2014-Oct-30 17:24N 58°06' E 008°54'4314.2
2014-Oct-30 14:21N 58°42' E 009°41'2111.6
2014-Oct-30 12:32N 59°03' E 009°42'4 3.8
2014-Oct-30 11:26N 59°06' E 009°36'0 0.0
2014-Oct-29 19:24N 59°06' E 009°36'1 0.6
2014-Oct-29 17:28N 59°06' E 009°38'0 0.0
2014-Oct-29 14:34N 59°06' E 009°38'0 0.1
2014-Oct-29 13:30N 59°06' E 009°38'0 0.0
2014-Oct-29 12:27N 59°06' E 009°38'0 0.0
2014-Oct-29 11:22N 59°06' E 009°38'0 0.0
2014-Oct-29 10:18N 59°06' E 009°38'0 0.0
2014-Oct-29 08:03N 59°06' E 009°38'0 0.0
2014-Oct-29 07:33N 59°06' E 009°38'0 0.0
2014-Oct-29 06:30N 59°06' E 009°38'0 0.0
2014-Oct-29 01:12N 59°06' E 009°38'0 0.0
2014-Oct-29 00:09N 59°07' E 009°38'0 0.0
2014-Oct-28 23:12N 59°07' E 009°38'0 0.0
2014-Oct-28 22:27N 59°07' E 009°38'0 0.0
2014-Oct-28 21:30N 59°06' E 009°38'0 0.0
2014-Oct-28 20:18N 59°07' E 009°38'0 0.0
2014-Oct-28 19:15N 59°07' E 009°38'0 0.0
2014-Oct-28 18:30N 59°07' E 009°38'0 0.0
2014-Oct-28 17:30N 59°07' E 009°38'0 0.0
2014-Oct-28 16:21N 59°07' E 009°38'0 0.0
2014-Oct-28 15:18N 59°07' E 009°38'0 0.0
2014-Oct-28 14:21N 59°07' E 009°38'0 0.0
2014-Oct-28 12:21N 59°07' E 009°38'0 0.0
2014-Oct-28 11:21N 59°07' E 009°38'0 0.0
2014-Oct-28 09:24N 59°07' E 009°38'0 0.0
2014-Oct-28 08:30N 59°07' E 009°38'0 0.0
2014-Oct-28 07:30N 59°07' E 009°38'0 0.0
2014-Oct-28 03:33N 59°07' E 009°38'0 0.0
2014-Oct-28 02:18N 59°07' E 009°38'0 0.0
2014-Oct-28 01:33N 59°07' E 009°38'0 0.0
2014-Oct-28 00:24N 59°07' E 009°38'0 0.0
2014-Oct-27 22:24N 59°06' E 009°38'0 0.0
2014-Oct-27 21:09N 59°07' E 009°38'0 0.0
2014-Oct-27 20:27N 59°07' E 009°38'0 0.0
2014-Oct-27 19:27N 59°07' E 009°38'0 0.1
2014-Oct-27 18:12N 59°06' E 009°37'4 5.6
2014-Oct-27 17:24N 59°03' E 009°42'32511.7
2014-Oct-26 13:33N 54°16' E 005°06'1212.3
2014-Oct-26 12:33N 54°04' E 004°57'1212.3
2014-Oct-26 11:33N 53°52' E 004°53'1512.3
2014-Oct-26 10:19N 53°37' E 004°51'912.4
2014-Oct-26 09:33N 53°28' E 004°45'1312.9
2014-Oct-26 08:33N 53°17' E 004°36'2812.9
2014-Oct-26 06:25N 52°52' E 004°14'1212.9
2014-Oct-26 05:28N 52°42' E 004°03'1612.9
2014-Oct-26 04:15N 52°31' E 003°46'911.5
2014-Oct-26 03:27N 52°22' E 003°41'1212.8
2014-Oct-26 02:33N 52°12' E 003°32'2612.6
2014-Oct-26 00:32N 51°48' E 003°18'1110.1
2014-Oct-25 23:27N 51°37' E 003°22'1213.2
2014-Oct-25 22:33N 51°27' E 003°32'1010.0
2014-Oct-25 21:33N 51°22' E 003°46'1110.7
2014-Oct-25 20:34N 51°23' E 004°03'9 9.2
2014-Oct-25 19:33N 51°21' E 004°17'2 1.5
2014-Oct-25 18:32N 51°19' E 004°19'4 3.8
2014-Oct-25 17:32N 51°16' E 004°20'0 0.0
2014-Oct-24 23:17N 51°16' E 004°20'1 1.4
2014-Oct-24 22:33N 51°17' E 004°20'5 4.5
2014-Oct-24 21:33N 51°21' E 004°17'0 0.0
2014-Oct-24 20:33N 51°21' E 004°17'6 5.5
2014-Oct-24 19:33N 51°23' E 004°09'8 7.6
2014-Oct-24 18:33N 51°23' E 003°57'9 9.2
2014-Oct-24 17:33N 51°24' E 003°42'8 8.0
2014-Oct-24 16:33N 51°28' E 003°31'1211.8
2014-Oct-24 15:33N 51°38' E 003°21'8 7.9
2014-Oct-24 14:33N 51°46' E 003°19'1 0.6
2014-Oct-24 13:29N 51°46' E 003°20'0 0.0
2014-Oct-24 12:32N 51°46' E 003°20'0 0.0
2014-Oct-23 22:19N 51°46' E 003°20'0 0.1
2014-Oct-23 21:31N 51°46' E 003°19'9 9.4
2014-Oct-23 20:33N 51°46' E 003°05'1312.8
2014-Oct-23 19:33N 51°50' E 002°45'4313.0
2014-Oct-23 16:13N 52°28' E 002°09'811.8
2014-Oct-23 15:33N 52°35' E 002°04'1111.4
2014-Oct-23 14:33N 52°45' E 001°55'1111.2
2014-Oct-23 13:33N 52°53' E 001°42'1111.0
2014-Oct-23 12:33N 53°01' E 001°30'1211.9
2014-Oct-23 11:33N 53°11' E 001°19'4912.3
2014-Oct-23 07:33N 53°51' E 000°32'1413.5
2014-Oct-23 06:32N 54°03' E 000°19'1414.1
2014-Oct-23 05:33N 54°15' E 000°07'1514.6
2014-Oct-23 04:33N 54°27' W 000°06'1515.1
2014-Oct-23 03:33N 54°40' W 000°20'1515.0
2014-Oct-23 02:33N 54°53' W 000°34'1514.7
2014-Oct-23 01:33N 55°05' W 000°47'1514.8
2014-Oct-23 00:32N 55°18' W 001°01'1414.5
2014-Oct-22 23:33N 55°30' W 001°15'1513.7
2014-Oct-22 22:29N 55°42' W 001°29'3113.1
2014-Oct-22 20:07N 56°04' W 002°09'712.7
2014-Oct-22 19:33N 56°07' W 002°21'1414.3
2014-Oct-22 18:33N 56°06' W 002°47'1313.4
2014-Oct-22 17:33N 56°03' W 003°10'5 4.2
2014-Oct-22 16:25N 56°02' W 003°19'0 0.0
2014-Oct-21 23:33N 56°02' W 003°19'4 4.4
2014-Oct-21 22:33N 56°03' W 003°11'5 5.5
2014-Oct-21 21:33N 56°06' W 003°03'2 2.1
2014-Oct-21 20:31N 56°08' W 003°02'0 0.0
2014-Oct-21 19:31N 56°08' W 003°02'0 0.0
2014-Oct-21 18:31N 56°08' W 003°02'0 0.0
2014-Oct-21 17:31N 56°08' W 003°02'0 0.0
2014-Oct-21 16:22N 56°08' W 003°02'0 0.0
2014-Oct-21 15:25N 56°08' W 003°02'0 0.0
2014-Oct-21 14:22N 56°08' W 003°02'0 0.0
2014-Oct-21 13:25N 56°08' W 003°02'0 0.0
2014-Oct-21 12:33N 56°08' W 003°02'1010.4
2014-Oct-21 11:33N 56°07' W 002°43'1212.3
2014-Oct-21 10:33N 56°06' W 002°21'1212.4
2014-Oct-21 09:33N 56°02' W 002°01'  
Track history (hours):
 
Tides and Currents Weather Stations Pressure Air Temp Water Temp Dewpoint Dewpoint Depression Visibility Wind Speed Wind Dir Waves Ship Positions

Coral Leaf

Last reported at 2014-Oct-30 17:24 UTC. Time now 2014-Oct-31 07:02 UTC.
Position N 58°06' E 008°54'.

Length 108 m; draft 6.7 m.

MMSI: 244036000.

Date/timePositionNaut miles runAvg speedWind from/ knotsBaromVisibWave heightAir tempDewpointWater temp
2014-Oct-30 17:24N 58°06' E 008°54'4314.2
2014-Oct-30 14:21N 58°42' E 009°41'2111.6
2014-Oct-30 12:32N 59°03' E 009°42'4 3.8
2014-Oct-30 11:26N 59°06' E 009°36'0 0.0
2014-Oct-29 19:24N 59°06' E 009°36'1 0.6
2014-Oct-29 17:28N 59°06' E 009°38'0 0.0
2014-Oct-29 14:34N 59°06' E 009°38'0 0.1
2014-Oct-29 13:30N 59°06' E 009°38'0 0.0
2014-Oct-29 12:27N 59°06' E 009°38'0 0.0
2014-Oct-29 11:22N 59°06' E 009°38'0 0.0
2014-Oct-29 10:18N 59°06' E 009°38'0 0.0
2014-Oct-29 08:03N 59°06' E 009°38'0 0.0
2014-Oct-29 07:33N 59°06' E 009°38'0 0.0
2014-Oct-29 06:30N 59°06' E 009°38'0 0.0
2014-Oct-29 01:12N 59°06' E 009°38'0 0.0
2014-Oct-29 00:09N 59°07' E 009°38'0 0.0
2014-Oct-28 23:12N 59°07' E 009°38'0 0.0
2014-Oct-28 22:27N 59°07' E 009°38'0 0.0
2014-Oct-28 21:30N 59°06' E 009°38'0 0.0
2014-Oct-28 20:18N 59°07' E 009°38'0 0.0
2014-Oct-28 19:15N 59°07' E 009°38'0 0.0
2014-Oct-28 18:30N 59°07' E 009°38'0 0.0
2014-Oct-28 17:30N 59°07' E 009°38'0 0.0
2014-Oct-28 16:21N 59°07' E 009°38'0 0.0
2014-Oct-28 15:18N 59°07' E 009°38'0 0.0
2014-Oct-28 14:21N 59°07' E 009°38'0 0.0
2014-Oct-28 12:21N 59°07' E 009°38'0 0.0
2014-Oct-28 11:21N 59°07' E 009°38'0 0.0
2014-Oct-28 09:24N 59°07' E 009°38'0 0.0
2014-Oct-28 08:30N 59°07' E 009°38'0 0.0
2014-Oct-28 07:30N 59°07' E 009°38'0 0.0
2014-Oct-28 03:33N 59°07' E 009°38'0 0.0
2014-Oct-28 02:18N 59°07' E 009°38'0 0.0
2014-Oct-28 01:33N 59°07' E 009°38'0 0.0
2014-Oct-28 00:24N 59°07' E 009°38'0 0.0
2014-Oct-27 22:24N 59°06' E 009°38'0 0.0
2014-Oct-27 21:09N 59°07' E 009°38'0 0.0
2014-Oct-27 20:27N 59°07' E 009°38'0 0.0
2014-Oct-27 19:27N 59°07' E 009°38'0 0.1
2014-Oct-27 18:12N 59°06' E 009°37'4 5.6
2014-Oct-27 17:24N 59°03' E 009°42'32511.7
2014-Oct-26 13:33N 54°16' E 005°06'1212.3
2014-Oct-26 12:33N 54°04' E 004°57'1212.3
2014-Oct-26 11:33N 53°52' E 004°53'1512.3
2014-Oct-26 10:19N 53°37' E 004°51'912.4
2014-Oct-26 09:33N 53°28' E 004°45'1312.9
2014-Oct-26 08:33N 53°17' E 004°36'2812.9
2014-Oct-26 06:25N 52°52' E 004°14'1212.9
2014-Oct-26 05:28N 52°42' E 004°03'1612.9
2014-Oct-26 04:15N 52°31' E 003°46'911.5
2014-Oct-26 03:27N 52°22' E 003°41'1212.8
2014-Oct-26 02:33N 52°12' E 003°32'2612.6
2014-Oct-26 00:32N 51°48' E 003°18'1110.1
2014-Oct-25 23:27N 51°37' E 003°22'1213.2
2014-Oct-25 22:33N 51°27' E 003°32'1010.0
2014-Oct-25 21:33N 51°22' E 003°46'1110.7
2014-Oct-25 20:34N 51°23' E 004°03'9 9.2
2014-Oct-25 19:33N 51°21' E 004°17'2 1.5
2014-Oct-25 18:32N 51°19' E 004°19'4 3.8
2014-Oct-25 17:32N 51°16' E 004°20'0 0.0
2014-Oct-24 23:17N 51°16' E 004°20'1 1.4
2014-Oct-24 22:33N 51°17' E 004°20'5 4.5
2014-Oct-24 21:33N 51°21' E 004°17'0 0.0
2014-Oct-24 20:33N 51°21' E 004°17'6 5.5
2014-Oct-24 19:33N 51°23' E 004°09'8 7.6
2014-Oct-24 18:33N 51°23' E 003°57'9 9.2
2014-Oct-24 17:33N 51°24' E 003°42'8 8.0
2014-Oct-24 16:33N 51°28' E 003°31'1211.8
2014-Oct-24 15:33N 51°38' E 003°21'8 7.9
2014-Oct-24 14:33N 51°46' E 003°19'1 0.6
2014-Oct-24 13:29N 51°46' E 003°20'0 0.0
2014-Oct-24 12:32N 51°46' E 003°20'0 0.0
2014-Oct-23 22:19N 51°46' E 003°20'0 0.1
2014-Oct-23 21:31N 51°46' E 003°19'9 9.4
2014-Oct-23 20:33N 51°46' E 003°05'1312.8
2014-Oct-23 19:33N 51°50' E 002°45'4313.0
2014-Oct-23 16:13N 52°28' E 002°09'811.8
2014-Oct-23 15:33N 52°35' E 002°04'1111.4
2014-Oct-23 14:33N 52°45' E 001°55'1111.2
2014-Oct-23 13:33N 52°53' E 001°42'1111.0
2014-Oct-23 12:33N 53°01' E 001°30'1211.9
2014-Oct-23 11:33N 53°11' E 001°19'4912.3
2014-Oct-23 07:33N 53°51' E 000°32'1413.5
2014-Oct-23 06:32N 54°03' E 000°19'1414.1
2014-Oct-23 05:33N 54°15' E 000°07'1514.6
2014-Oct-23 04:33N 54°27' W 000°06'1515.1
2014-Oct-23 03:33N 54°40' W 000°20'1515.0
2014-Oct-23 02:33N 54°53' W 000°34'1514.7
2014-Oct-23 01:33N 55°05' W 000°47'1514.8
2014-Oct-23 00:32N 55°18' W 001°01'1414.5
2014-Oct-22 23:33N 55°30' W 001°15'1513.7
2014-Oct-22 22:29N 55°42' W 001°29'3113.1
2014-Oct-22 20:07N 56°04' W 002°09'712.7
2014-Oct-22 19:33N 56°07' W 002°21'1414.3
2014-Oct-22 18:33N 56°06' W 002°47'1313.4
2014-Oct-22 17:33N 56°03' W 003°10'5 4.2
2014-Oct-22 16:25N 56°02' W 003°19'0 0.0
2014-Oct-21 23:33N 56°02' W 003°19'4 4.4
2014-Oct-21 22:33N 56°03' W 003°11'5 5.5
2014-Oct-21 21:33N 56°06' W 003°03'2 2.1
2014-Oct-21 20:31N 56°08' W 003°02'0 0.0
2014-Oct-21 19:31N 56°08' W 003°02'0 0.0
2014-Oct-21 18:31N 56°08' W 003°02'0 0.0
2014-Oct-21 17:31N 56°08' W 003°02'0 0.0
2014-Oct-21 16:22N 56°08' W 003°02'0 0.0
2014-Oct-21 15:25N 56°08' W 003°02'0 0.0
2014-Oct-21 14:22N 56°08' W 003°02'0 0.0
2014-Oct-21 13:25N 56°08' W 003°02'0 0.0
2014-Oct-21 12:33N 56°08' W 003°02'1010.4
2014-Oct-21 11:33N 56°07' W 002°43'1212.3
2014-Oct-21 10:33N 56°06' W 002°21'1212.4
2014-Oct-21 09:33N 56°02' W 002°01'  

Dump ship's entire track history